This is the latest recevied weather packets stored in our database for station/object SP1BMW-13. If no packets are shown the sender has not sent any weather packets the latest 10 day(s).
| Time | Temp. | Humidity | Pressure | Rain* | Wind** | Luminosity | Snow |
|---|---|---|---|---|---|---|---|
| 1777643242 | 23.33° C | 32% | 1025.7 hPa | 0 mm | 0 m/s | 525 W/m² | - |
| 1777643182 | 23.33° C | 33% | 1025.6 hPa | 0 mm | 0.89 m/s, 45° | 527 W/m² | - |
| 1777643122 | 23.33° C | 31% | 1025.6 hPa | 0 mm | 0.45 m/s, 50° | 528 W/m² | - |
| 1777643062 | 23.33° C | 32% | 1025.7 hPa | 0 mm | 1.79 m/s, 355° | 531 W/m² | - |
| 1777643002 | 23.33° C | 32% | 1025.7 hPa | 0 mm | 0.45 m/s, 31° | 532 W/m² | - |
| 1777642942 | 23.33° C | 31% | 1025.6 hPa | 0 mm | 0.89 m/s, 40° | 533 W/m² | - |
| 1777642882 | 23.33° C | 31% | 1025.6 hPa | 0 mm | 1.34 m/s, 63° | 534 W/m² | - |
| 1777642822 | 23.33° C | 31% | 1025.8 hPa | 0 mm | 0 m/s | 536 W/m² | - |
| 1777642762 | 23.33° C | 30% | 1025.8 hPa | 0 mm | 1.79 m/s, 65° | 538 W/m² | - |
| 1777642702 | 23.33° C | 31% | 1025.9 hPa | 0 mm | 0.89 m/s, 337° | 538 W/m² | - |
| 1777642642 | 23.33° C | 32% | 1026 hPa | 0 mm | 0.89 m/s, 53° | 537 W/m² | - |
| 1777642582 | 23.33° C | 31% | 1025.8 hPa | 0 mm | 1.34 m/s, 333° | 539 W/m² | - |
| 1777642522 | 23.33° C | 32% | 1025.8 hPa | 0 mm | 0.45 m/s, 73° | 543 W/m² | - |
| 1777642462 | 23.33° C | 33% | 1025.9 hPa | 0 mm | 1.34 m/s, 47° | 544 W/m² | - |
| 1777642402 | 23.33° C | 31% | 1025.7 hPa | 0 mm | 0.45 m/s, 70° | 547 W/m² | - |
| 1777642342 | 23.33° C | 31% | 1026 hPa | 0 mm | 0.89 m/s, 48° | 548 W/m² | - |
| 1777642282 | 22.78° C | 32% | 1025.9 hPa | 0 mm | 0 m/s | 548 W/m² | - |
| 1777642222 | 22.78° C | 31% | 1025.8 hPa | 0 mm | 0.45 m/s, 45° | 551 W/m² | - |
| 1777642162 | 23.33° C | 31% | 1026 hPa | 0 mm | 1.34 m/s, 358° | 552 W/m² | - |
| 1777642102 | 23.33° C | 32% | 1026 hPa | 0 mm | 0.45 m/s, 57° | 551 W/m² | - |
| 1777642042 | 23.33° C | 33% | 1025.8 hPa | 0 mm | 1.34 m/s, 46° | 555 W/m² | - |
| 1777641982 | 23.33° C | 31% | 1025.9 hPa | 0 mm | 1.79 m/s, 50° | 555 W/m² | - |
| 1777641922 | 23.33° C | 33% | 1025.9 hPa | 0 mm | 0.45 m/s, 49° | 557 W/m² | - |
| 1777641862 | 23.33° C | 32% | 1025.9 hPa | 0 mm | 1.34 m/s, 14° | 555 W/m² | - |
| 1777641802 | 23.33° C | 31% | 1026 hPa | 0 mm | 0.89 m/s, 339° | 556 W/m² | - |
* Rain latest hour (hover to see other rain measurements)
** Current wind speed in m/s (hover to see current wind gust speed)